La Motte, IA

10:17 PM CDT on August 25, 2016 (GMT -0500)
Dubuque Regional

Weather History for KDBQ - May, 2013

Change the Weather History Date:

Friday, May 31, 2013

  Actual Average Record
Temperature  
Mean Temperature 68 °F 64 °F  
Max Temperature 74 °F 74 °F 104 °F (1934)
Min Temperature 61 °F 53 °F 36 °F (1897)
Degree Days  
Heating Degree Days 0 4  
Month to date heating degree days 217 225  
Since 1 July heating degree days 7257 7046  
Cooling Degree Days 3 2  
Month to date cooling degree days 37 32  
Year to date cooling degree days 45 37  
Growing Degree Days 17 (Base 50)    
Moisture  
Dew Point 62 °F    
Average Humidity 81    
Maximum Humidity 100    
Minimum Humidity 61    
Precipitation  
Precipitation 0.00 in 0.14 in 1.83 in (1971)
Month to date precipitation 7.05 4.19  
Year to date precipitation 21.58 12.87  
Snow  
Snow 0.00 in 0.00 in - ()
Month to date snowfall 0.0 0.0  
Since 1 July snowfall 54.5 41.9  
Snow Depth 0.00 in    
Sea Level Pressure  
Sea Level Pressure 29.73 in    
Wind  
Wind Speed 15 mph (South)    
Max Wind Speed 29 mph    
Max Gust Speed 37 mph    
Visibility 10 miles    
Events      
T = Trace of Precipitation, MM = Missing Value Source: NWS Daily Summary

Daily Weather History Graph

Daily Weather History Graph

Search for Another Location

Airport or City:

Trip Planner

Search our weather history database for the weather conditions in past years. The results will help you decide how hot, cold, wet, or windy it might be!

Date:

Astronomy

May. 31, 2013 Rise Set
Actual Time 5:28 AM CDT 8:32 PM CDT
Civil Twilight 4:54 AM CDT 9:06 PM CDT
Nautical Twilight 4:11 AM CDT 9:50 PM CDT
Astronomical Twilight 3:20 AM CDT 10:41 PM CDT
Moon 1:01 AM CDT (5/31) 12:50 PM CDT (5/31)
Length of Visible Light 16h 11m
Length of Day
15h 03m
Waning Gibbous, 51% of the Moon is Illuminated
May 31
Waning Gibbous
May 31
Last Quarter
Jun 8
New
Jun 16
First Quarter
Jun 23
Full

Hourly Weather History & Observations

Time (CDT) Temp. Dew Point Humidity Pressure Visibility Wind Dir Wind Speed Gust Speed Precip Events Conditions
12:08 AM 60.8 °F 60.8 °F 100% 29.75 in 10.0 mi South 16.1 mph - N/A   Partly Cloudy
12:53 AM 62.1 °F 60.1 °F 93% 29.74 in 10.0 mi South 12.7 mph 21.9 mph N/A   Partly Cloudy
1:18 AM 62.6 °F 60.8 °F 94% 29.75 in 10.0 mi South 13.8 mph - N/A   Mostly Cloudy
1:53 AM 62.1 °F 61.0 °F 96% 29.73 in 10.0 mi South 17.3 mph - N/A   Overcast
2:53 AM 62.1 °F 61.0 °F 96% 29.73 in 10.0 mi South 15.0 mph - N/A   Overcast
3:37 AM 60.8 °F 60.8 °F 100% 29.75 in 10.0 mi South 11.5 mph - N/A   Mostly Cloudy
3:50 AM 60.8 °F 60.8 °F 100% 29.75 in 10.0 mi South 13.8 mph - N/A   Mostly Cloudy
3:53 AM 61.0 °F 60.1 °F 97% 29.74 in 10.0 mi South 12.7 mph - N/A   Mostly Cloudy
4:37 AM 60.8 °F 60.8 °F 100% 29.77 in 10.0 mi South 13.8 mph - N/A   Mostly Cloudy
4:53 AM 61.0 °F 60.1 °F 97% 29.74 in 10.0 mi South 15.0 mph - N/A   Overcast
5:22 AM 62.6 °F 60.8 °F 94% 29.75 in 10.0 mi South 17.3 mph - N/A   Overcast
5:53 AM 62.1 °F 61.0 °F 96% 29.73 in 10.0 mi South 16.1 mph - N/A   Overcast
6:53 AM 62.1 °F 61.0 °F 96% 29.75 in 10.0 mi South 12.7 mph - N/A   Overcast
7:53 AM 63.0 °F 62.1 °F 97% 29.74 in 8.0 mi South 17.3 mph - N/A   Overcast
8:53 AM 64.0 °F 63.0 °F 96% 29.75 in 8.0 mi South 16.1 mph 23.0 mph N/A   Overcast
9:53 AM 64.0 °F 63.0 °F 96% 29.74 in 10.0 mi South 11.5 mph - N/A   Overcast
10:28 AM 66.2 °F 64.4 °F 94% 29.75 in 10.0 mi South 13.8 mph - N/A   Scattered Clouds
10:53 AM 68.0 °F 64.0 °F 87% 29.73 in 10.0 mi South 13.8 mph - N/A   Clear
11:53 AM 70.0 °F 63.0 °F 78% 29.75 in 10.0 mi SSW 16.1 mph 23.0 mph N/A   Clear
12:53 PM 72.0 °F 60.1 °F 66% 29.73 in 10.0 mi SSW 17.3 mph 23.0 mph N/A   Clear
1:53 PM 73.0 °F 59.0 °F 61% 29.73 in 10.0 mi SSW 18.4 mph - N/A   Clear
2:53 PM 73.9 °F 61.0 °F 64% 29.72 in 10.0 mi SSW 26.5 mph 35.7 mph N/A   Clear
3:53 PM 73.0 °F 61.0 °F 66% 29.70 in 10.0 mi SSW 26.5 mph 33.4 mph N/A   Partly Cloudy
4:53 PM 73.0 °F 62.1 °F 68% 29.71 in 10.0 mi SSW 19.6 mph - N/A   Scattered Clouds
5:53 PM 73.0 °F 63.0 °F 71% 29.69 in 10.0 mi South 16.1 mph - N/A   Partly Cloudy
6:53 PM 72.0 °F 64.0 °F 76% 29.68 in 10.0 mi South 15.0 mph - N/A   Clear
7:53 PM 70.0 °F 64.0 °F 81% 29.68 in 10.0 mi South 9.2 mph - N/A   Clear
8:53 PM 68.0 °F 64.0 °F 87% 29.68 in 10.0 mi South 9.2 mph - N/A   Clear
9:53 PM 66.9 °F 64.9 °F 93% 29.70 in 10.0 mi South 11.5 mph - N/A   Clear
10:53 PM 66.9 °F 66.0 °F 97% 29.69 in 10.0 mi SW 9.2 mph - N/A   Scattered Clouds
11:17 PM 66.2 °F 66.2 °F 100% 29.70 in 10.0 mi SW 9.2 mph - N/A   Mostly Cloudy
11:53 PM 66.9 °F 66.0 °F 97% 29.67 in 10.0 mi SSW 8.1 mph - N/A   Overcast